Location: Lövberget
(66.7500°N, 22.2333°E)
Time: 11:21:22
(UTC+00:00)

Daily predictions for brighter satellites

Satellite Brightness Start Highest point End
(mag) Time Altitude Azimuth Time Altitude Azimuth Time Altitude Azimuth
Cosmos 2322 Rocket 2.3 18:52:01 10° SSW 18:57:29 55° SE 19:02:58 10° NE
Cosmos 2184 Rocket 4.2 18:51:06 10° SSW 18:57:31 88° WNW 19:03:54 10° NNE
Cosmos 1354 Rocket 4.1 18:52:20 10° SW 18:57:41 87° SE 19:03:03 10° NE
Cosmos 1666 Rocket 4.0 18:55:15 10° SSW 18:59:33 68° WNW 19:03:52 10° NNE
Cosmos 1633 Rocket 3.4 18:56:12 10° SSW 19:00:36 74° WNW 19:05:00 10° NNE
Cosmos 1340 Rocket 3.0 18:57:31 10° SSW 19:01:11 68° WNW 19:04:51 10° NNE
ADEOS 4.4 18:56:32 10° S 19:01:37 51° WSW 19:06:44 10° NNW
Cosmos 1869 Rocket 3.9 18:58:19 10° S 19:02:33 47° E 19:06:49 10° NNE
Cosmos 2242 Rocket 3.7 18:58:33 10° NNW 19:03:07 85° ENE 19:07:38 10° SSE
SL-08 R/B 3.6 18:59:40 10° NNE 19:04:24 49° ESE 19:09:09 10° S
Terra 2.8 19:00:02 10° S 19:04:35 47° W 19:09:09 10° NNW
ATLAS 5 CENTAUR R/B 1.4 19:02:05 10° SW 19:05:08 40° SSE 19:08:39 10° E
SL-16 R/B 2.2 18:59:40 10° SW 19:05:20 75° SE 19:11:02 10° NE
Cosmos 1503 Rocket 4.4 19:00:49 10° SW 19:06:13 76° NW 19:11:36 10° NE
Cosmos 2297 3.9 19:01:29 10° WNW 19:07:16 77° NNE 19:13:03 10° ESE
Cosmos 2292 Rocket 4.5 19:00:47 10° NNW 19:07:24 65° ENE 19:12:37 10° SSE
Cosmos 1025 Rocket 3.2 19:03:48 10° NNW 19:08:01 57° ENE 19:12:12 10° SE
CZ-4 R/B 3.5 19:06:30 10° SSW 19:09:40 25° W 19:12:50 10° NW
Cosmos 1898 Rocket 3.6 19:05:30 10° SSW 19:10:37 58° ESE 19:15:44 10° NE
Cosmos 2237 Rocket 3.7 19:07:16 10° SE 19:10:45 17° E 19:14:14 10° ENE
COSMOS 2455 3.0 19:04:56 10° W 19:11:01 87° N 19:17:05 10° E
Okean O Rocket 2.2 19:09:09 10° S 19:13:28 57° WSW 19:17:46 10° NNW
Cosmos 2341 Rocket 4.2 19:07:38 10° S 19:13:46 59° E 19:19:58 10° NNE
ASTEX 1 3.4 19:12:55 10° SSE 19:17:48 73° ENE 19:22:44 10° N
USA 281 4.2 19:12:49 10° ENE 19:19:03 47° N 19:25:18 10° WNW
ALOS 2 4.2 19:15:59 10° E 19:19:36 25° NE 19:23:13 10° NNW
Cosmos 2333 4.2 19:14:40 10° SSW 19:20:09 58° SE 19:25:40 10° NE
Cosmos 372 Rocket 4.0 19:16:14 10° SSW 19:21:28 75° SE 19:26:43 10° NE
CZ-4B R/B 2.7 19:17:52 10° SSE 19:21:28 72° WSW 19:24:57 10° NNW
Cosmos 1975 Rocket 4.1 19:19:10 10° NNW 19:23:17 34° NE 19:27:22 10° ESE
Meteor 2-21 Rocket 4.5 19:17:29 10° NNW 19:23:37 85° ENE 19:29:46 10° SSE
Cosmos 2219 Rocket 2.3 19:20:36 10° SSW 19:26:01 54° SE 19:31:29 10° NE
Cosmos 990 Rocket 4.3 19:22:47 10° SW 19:27:57 75° NW 19:33:07 10° NE
SPOT 3 Rocket 3.8 19:22:50 10° SSE 19:28:03 75° WSW 19:33:16 10° NNW
ARIANE 5 R/B 3.9 19:26:01 10° ESE 19:29:48 30° NE 19:33:37 10° NNW
USA 234 3.9 19:24:33 10° E 19:30:22 33° SSE 19:36:12 10° SW
Cosmos 1400 Rocket 3.8 19:28:40 10° SSE 19:31:40 25° E 19:34:41 10° NE
Cosmos 1937 Rocket 3.5 19:26:57 10° SSW 19:32:11 62° ESE 19:37:24 10° NE
Cosmos 2369 Rocket 2.2 19:27:58 10° NW 19:33:38 89° SSW 19:39:12 10° SE
NOSS 3-1 (A) 3.6 19:30:07 10° W 19:35:49 66° S 19:43:10 10° ESE
Cosmos 1727 Rocket 4.2 19:30:03 10° NNW 19:36:28 85° WSW 19:42:50 10° SSE
USA 186 3.3 19:36:04 10° SSW 19:37:46 20° W 19:39:32 10° NW
Cosmos 1674 Rocket 3.5 19:34:05 10° NNW 19:38:24 87° WSW 19:42:43 10° SSE
Cosmos 1656 4.2 19:33:11 10° WNW 19:38:34 57° N 19:43:57 10° E
Cosmos 2263 4.2 19:34:00 10° WNW 19:39:40 87° NE 19:45:17 10° SE
Cosmos 371 Rocket 4.2 19:35:24 10° NW 19:40:04 46° NNE 19:44:44 10° E
SKYMED 3 4.3 19:36:59 10° NNE 19:40:55 88° ESE 19:44:49 10° SSW
SL-8 Rocket 4.0 19:35:07 10° S 19:41:22 78° ESE 19:47:42 10° NNE
Cosmos 1812 3.1 19:41:33 11° E 19:41:33 11° E 19:42:10 10° ENE
Cosmos 2278 Rocket 3.4 19:36:21 10° NW 19:41:30 36° WSW 19:46:37 10° S
COSMOS 2428 3.3 19:38:18 10° S 19:43:30 37° ESE 19:48:44 10° NE
Cosmos 1953 4.0 19:42:02 10° SW 19:45:22 34° WNW 19:48:43 10° N
USA 245 4.4 19:41:42 10° S 19:45:51 55° W 19:50:54 10° NNW
Cosmos 2221 Rocket 3.6 19:44:12 10° NNW 19:48:39 81° ENE 19:52:49 11° SSE
Geosat 4.0 19:44:28 10° NE 19:49:27 60° SE 19:54:25 10° SSW
Cosmos 1697 Rocket 3.4 19:45:23 10° W 19:51:00 57° N 19:56:35 10° ENE
Cosmos 2366 rocket 4.0 19:45:10 10° S 19:51:21 80° ESE 19:57:31 10° NNE
Ariane Rocket 3.3 19:47:27 10° S 19:52:28 65° WSW 19:57:30 10° NNW
Helios 1B rocket 2.3 19:49:49 13° SE 19:52:48 56° ENE 19:56:16 10° NNW
Cosmos 2369 4.2 19:47:34 10° WSW 19:53:13 65° NNW 19:58:54 10° ENE
Cosmos 1602 2.4 19:51:02 10° NNW 19:53:28 76° ENE 19:55:14 16° SSE
Cosmos 1346 Rocket 2.7 19:50:15 10° NNW 19:53:54 74° WSW 19:57:18 11° SSE
Cosmos 2333 Rocket 2.3 19:48:55 10° WSW 19:54:37 87° NW 20:00:20 10° ENE
Helios 1A 4.4 19:51:48 10° NE 19:54:50 20° E 19:57:11 13° SE
SWAS 4.3 19:50:50 10° WNW 19:54:54 89° SSW 19:58:37 12° ESE
Cosmos 1378 Rocket 4.2 19:53:59 10° NNW 19:58:19 53° W 20:02:36 10° S
USA 32 4.1 19:56:24 10° S 20:01:40 88° E 20:06:57 10° NNE
Cosmos 2058 3.6 19:59:32 10° NNW 20:03:19 41° ENE 20:06:28 14° SE
CZ-2C R/B 3.3 20:01:00 10° S 20:03:45 36° W 20:06:30 10° NNW
Cosmos 1656 Rocket 4.1 19:58:54 10° NW 20:04:10 52° SW 20:08:57 13° SSE
ARIANE 6 FM1 Upper Stage 3.4 20:01:37 10° SW 20:05:11 30° SSE 20:08:43 10° E
Helios 1A Rocket 4.0 20:03:08 10° NNE 20:06:10 37° NW 20:09:11 10° WSW
Cosmos 1980 Rocket 2.9 20:00:44 10° W 20:06:21 58° N 20:12:00 10° ENE
YAOGAN 11 4.0 20:02:21 10° NNE 20:06:37 87° ESE 20:10:52 10° SSW
Cosmos 1943 Rocket 3.9 20:02:05 10° NW 20:06:38 25° WSW 20:11:10 10° SSW
Cosmos 407 Rocket 3.9 20:03:56 10° NW 20:09:08 61° NE 20:14:10 10° ESE
Cosmos 1933 Rocket 4.2 20:05:55 10° SW 20:10:16 58° WNW 20:14:39 10° NNE
CSL-04 DEB 4.0 20:10:05 16° SSE 20:12:48 83° ENE 20:16:19 10° NNW
Cosmos 2123 Rocket 4.1 20:06:51 10° NNW 20:13:06 83° WSW 20:19:09 11° S
Cosmos 1862 3.6 20:09:36 10° NNW 20:13:09 46° ENE 20:15:49 16° SE
USA 59 Rocket 1.5 20:13:28 10° WSW 20:15:21 15° SW 20:17:17 10° S
SJ 16-02 2.2 20:11:44 10° NW 20:15:52 43° NNE 20:19:59 10° ESE
Cosmos 1174 3.7 20:12:24 10° WNW 20:16:21 59° SSW 20:18:54 16° SE
Cosmos 2218 Rocket 4.1 20:10:38 10° SSW 20:16:48 85° WNW 20:23:01 10° NNE
Dummy Sat-02 4.5 20:13:41 11° S 20:17:12 78° E 20:20:50 10° N
Cosmos 405 Rocket 2.1 20:15:27 10° NNW 20:18:28 70° ENE 20:20:26 19° SSE
SL-16 R/B 3.8 20:16:16 13° SE 20:18:43 16° E 20:22:08 10° ENE
Meteor 2-15 4.5 20:14:48 10° SSW 20:20:54 89° WNW 20:27:03 10° NNE
Meteor 2-15 Rocket 4.4 20:15:39 10° S 20:21:43 78° ESE 20:27:52 10° NNE
Cosmos 1818 3.6 20:17:41 10° W 20:23:09 75° S 20:28:37 10° E
Cosmos 1733 Rocket 3.0 20:19:28 10° SSW 20:23:50 85° ESE 20:28:16 10° NNE
SeaSat 1 3.3 20:19:54 13° S 20:24:03 41° WSW 20:28:43 10° NW
Cosmos 1140 Rocket 3.5 20:19:22 10° NW 20:24:35 90° WSW 20:28:51 15° SE
Cosmos 1934 Rocket 4.3 20:19:16 12° SSE 20:24:52 52° E 20:30:52 10° NNE
SME Rocket 4.4 20:20:30 10° NNE 20:25:41 49° ESE 20:33:25 10° S
Aureole 1 Rocket 3.4 20:23:20 10° WSW 20:26:14 44° NNW 20:29:11 10° NE
CZ-2C R/B 3.8 20:21:50 10° ESE 20:26:55 38° NE 20:31:55 10° NNW
NOSS 3-4 (A) 4.3 20:23:14 10° S 20:27:27 24° SE 20:32:12 10° ENE
NOSS 3-4 (C) 4.3 20:23:46 11° S 20:27:57 24° SE 20:32:44 10° ENE
Cosmos 921 Rocket 3.2 20:23:39 10° NW 20:28:09 71° NE 20:31:45 15° SE
Cosmos 2278 4.0 20:23:21 10° WSW 20:29:03 72° NNW 20:34:47 10° ENE
ATLAS 3B R/B 3.0 20:22:08 10° WSW 20:29:57 69° SSE 20:37:43 10° E
Cosmos 1821 Rocket 4.1 20:25:00 10° SSW 20:31:18 88° WNW 20:37:42 10° NNE
USA 229 DEB 3.7 20:25:09 10° WSW 20:31:39 67° S 20:39:06 10° E
USA 229 3.7 20:25:12 10° WSW 20:31:43 67° S 20:39:10 10° E
Cosmos 2360 Rocket 2.4 20:27:47 10° WSW 20:33:27 79° NNW 20:39:11 10° ENE
Cosmos 1536 Rocket 4.4 20:29:57 10° NNW 20:34:04 39° ENE 20:37:24 14° ESE
NOSS 3-1 (C) 4.1 20:29:17 10° WNW 20:35:11 49° SSW 20:41:26 15° SE
Cosmos 2239 Rocket 4.5 20:30:03 10° S 20:36:14 76° ESE 20:42:29 10° NNE
Cosmos 2322 Rocket 2.4 20:35:51 10° WSW 20:41:29 74° NNW 20:47:09 10° ENE
SL-08 R/B 4.1 20:37:25 10° NNE 20:42:10 55° WNW 20:46:56 10° SW
Cosmos 1315 Rocket 4.2 20:40:28 17° SE 20:42:11 22° E 20:45:10 10° NE
Cosmos 1300 Rocket 4.1 20:40:20 18° SSE 20:43:08 41° E 20:47:11 10° NNE
Terra 4.4 20:40:42 10° WSW 20:43:17 14° WNW 20:45:52 10° NW
Cosmos 1025 Rocket 4.2 20:41:26 10° NNW 20:45:21 37° W 20:49:15 10° SSW
SAR-Lupe-2 3.7 20:43:09 20° SE 20:45:25 62° ENE 20:48:51 10° NNW
ATLAS 5 CENTAUR R/B 1.3 20:43:31 10° W 20:46:49 49° S 20:50:26 12° ESE
SL-16 R/B 2.7 20:44:01 10° W 20:49:41 64° NNW 20:55:22 10° ENE
Okean O Rocket 4.1 20:47:47 10° WSW 20:50:34 16° W 20:53:21 10° NW
Cosmos 2297 4.1 20:45:47 10° NW 20:51:22 53° SW 20:55:35 17° SSE
Cosmos 1898 Rocket 4.1 20:47:31 10° WSW 20:52:42 61° NW 20:57:52 10° NE
Cosmos 1605 Rocket 4.3 20:48:09 17° SSE 20:52:43 49° E 20:58:36 10° NNE
Cosmos 1269 Rocket 4.1 20:47:41 10° NW 20:52:58 73° SW 20:56:53 18° SSE
Cosmos 2237 Rocket 2.5 20:48:11 10° SSW 20:53:35 46° ESE 20:59:01 10° NE
Cosmos 1980 4.0 20:48:59 10° SSW 20:54:23 48° SE 20:59:47 10° NE
ALOS 2 2.7 20:52:17 19° SE 20:55:26 71° ENE 20:59:51 10° NNW
RESURS DK-1 3.5 20:54:55 20° SE 20:56:00 23° ESE 20:59:08 10° ENE
Cosmos 1125 Rocket 3.8 20:51:21 12° S 20:56:02 49° ESE 21:01:07 10° NE
Cosmos 1190 Rocket 4.4 20:51:06 10° NW 20:56:24 65° NE 21:01:28 11° ESE
COSMOS 2455 2.9 20:50:57 10° WNW 20:56:58 69° SSW 21:02:10 14° SE
Cosmos 2322 3.7 20:51:47 10° SW 20:57:30 74° SE 21:03:15 10° NE
Cosmos 1975 Rocket 3.2 20:56:56 10° NNW 21:01:23 72° WSW 21:04:32 19° S
USA 281 3.7 20:56:33 10° ESE 21:03:00 61° NNE 21:09:28 10° NW
Cosmos 2333 4.5 20:58:43 10° WSW 21:04:20 73° NNW 21:09:59 10° ENE
Cosmos 304 Rocket 3.7 21:00:51 10° NW 21:05:39 88° NE 21:09:14 18° SE
ARIANE 5 R/B 2.5 21:02:50 20° SSE 21:05:46 89° WSW 21:10:09 10° NNW
Cosmos 807 3.9 21:03:35 10° NNW 21:06:30 83° ENE 21:07:54 28° SSE
Cosmos 1400 Rocket 2.8 21:03:07 10° SSW 21:06:44 70° WNW 21:10:22 10° NNE
Cosmos 2219 Rocket 2.4 21:04:18 10° WSW 21:09:54 75° NNW 21:15:33 10° ENE
Cosmos 1812 2.0 21:09:39 29° WSW 21:10:05 36° WNW 21:11:43 10° N
Cosmos 1937 Rocket 4.2 21:08:58 10° WSW 21:14:13 58° NNW 21:19:27 10° NE
USA 234 3.7 21:08:33 10° ESE 21:14:37 39° S 21:20:42 10° WSW
MetOp-A 4.1 21:13:30 19° SE 21:17:05 73° ENE 21:22:12 10° NNW
Cosmos 2369 Rocket 3.0 21:12:06 10° NW 21:17:17 39° WSW 21:20:57 18° S
Cosmos 2251 Rocket 3.6 21:13:13 10° NW 21:18:34 78° NE 21:23:05 15° SE
Cosmos 1743 4.0 21:17:05 10° N 21:19:41 24° NE 21:21:43 13° ESE
Cosmos 371 Rocket 3.3 21:15:49 10° NW 21:20:41 85° SW 21:24:08 19° SE
Cosmos 1656 3.6 21:17:07 10° NW 21:22:35 89° NE 21:27:31 13° SE
Cosmos 1908 Rocket 3.6 21:22:14 15° SSW 21:25:54 82° WNW 21:30:16 10° NNE
Cosmos 2360 4.2 21:20:17 10° WNW 21:26:02 89° NNE 21:31:27 12° SE
Helios 1B rocket 3.4 21:23:49 16° SSW 21:26:03 31° W 21:29:15 10° NNW
NOSS 3-1 (A) 4.0 21:20:19 10° WNW 21:26:15 50° SSW 21:32:38 14° SE
COSMOS 2428 2.7 21:21:34 10° SW 21:27:19 85° SE 21:33:06 10° NE
Geosat 4.4 21:22:24 10° NE 21:27:23 68° NNW 21:32:23 10° WSW
Cosmos 676 Rocket 4.3 21:22:52 10° NW 21:28:12 69° NE 21:33:19 11° ESE
Helios 1A 2.8 21:26:07 10° NNE 21:30:09 78° ESE 21:32:54 20° SSW
NOSS 0 Rocket 3.9 21:24:11 10° SW 21:30:24 71° SE 21:36:37 10° ENE
Cosmos 1954 Rocket 4.1 21:27:32 10° NW 21:32:52 79° NE 21:37:20 15° SE
Cosmos 1782 Rocket 3.5 21:31:27 20° S 21:34:21 77° ESE 21:38:41 10° NNE
Cosmos 1697 Rocket 3.0 21:29:52 10° WNW 21:35:33 71° NNE 21:41:13 10° ESE
Cosmos 1869 2.9 21:33:23 22° SSW 21:35:36 88° WNW 21:39:12 10° NNE
Cosmos 2369 4.4 21:32:25 10° WNW 21:38:02 58° N 21:43:40 10° E
Cosmos 2333 Rocket 2.9 21:33:44 10° W 21:39:22 59° N 21:44:59 10° ENE
Cosmos 2058 3.4 21:35:40 10° NNW 21:39:30 48° W 21:41:48 21° SSW
Spot 4 4.1 21:37:28 21° S 21:40:34 60° WSW 21:45:17 10° NNW
Cosmos 968 Rocket 3.9 21:35:51 10° NW 21:40:59 62° NE 21:46:10 10° ESE
ARIANE 6 FM1 Upper Stage 2.9 21:39:48 10° WSW 21:43:38 43° S 21:47:25 10° ESE
SL-19 R/B 4.5 21:43:18 21° ESE 21:44:32 34° NE 21:46:55 10° NNW
Cosmos 1862 4.1 21:44:34 10° NNW 21:47:57 37° W 21:49:56 20° SSW
DNEPR-1 R/B 4.0 21:45:57 13° SW 21:49:27 41° SSE 21:53:58 10° ENE
CZ-2C R/B 3.9 21:45:45 10° NNE 21:50:12 56° ESE 21:52:43 24° S
Cosmos 1980 Rocket 2.7 21:45:20 10° WNW 21:51:00 64° NNE 21:56:42 10° E
Cosmos 407 Rocket 3.7 21:46:01 10° NW 21:51:07 56° WSW 21:54:15 22° S
Cosmos 405 Rocket 4.1 21:48:52 10° NW 21:51:07 19° W 21:52:34 14° SW
ACS3 Solar Sail 3.7 21:47:36 10° NNE 21:51:28 17° ENE 21:55:22 10° ESE
SJ 16-02 1.2 21:49:57 10° NW 21:54:15 73° SW 21:56:47 24° SSE
Meteor 2-3 Rocket 3.7 21:54:05 10° NNW 21:59:47 80° WSW 22:03:35 22° SSE
SL-16 R/B 2.6 21:58:05 21° S 22:01:36 45° ESE 22:06:59 10° NE
Cosmos 2151 4.4 22:01:19 10° NNW 22:05:07 32° NE 22:08:54 10° ESE
Cosmos 921 Rocket 3.9 22:01:56 10° NW 22:06:04 37° WSW 22:08:19 22° SSW
Cosmos 1818 3.7 22:01:09 10° WNW 22:06:28 54° SSW 22:11:03 14° SE
CZ-2C R/B 2.7 22:02:51 20° SSE 22:06:48 88° WSW 22:12:20 10° NNW
Cosmos 2298 Rocket 4.2 22:03:45 21° SSW 22:07:15 56° ESE 22:12:28 10° NE
Cosmos 1934 Rocket 4.4 22:03:52 10° SW 22:10:07 61° WNW 22:16:19 10° NNE
Cosmos 292 Rocket 4.0 22:07:01 10° NW 22:11:51 70° NE 22:16:40 10° SE
Cosmos 1536 Rocket 3.8 22:07:45 10° NNW 22:12:01 58° W 22:14:24 24° S
Cosmos 2151 Rocket 4.0 22:09:44 24° SSE 22:12:06 49° E 22:16:21 10° NNE
Cosmos 2278 4.5 22:08:10 10° WNW 22:13:47 56° N 22:19:25 10° E
NOSS 3-4 (A) 3.5 22:11:43 10° SW 22:17:06 50° SSE 22:23:18 10° E
Cosmos 1315 Rocket 2.6 22:15:09 24° SSW 22:17:21 84° WNW 22:21:10 10° NNE
NOSS 3-4 (C) 3.5 22:12:12 10° SW 22:17:36 50° SSE 22:23:49 10° E
Cosmos 2360 Rocket 2.9 22:12:23 10° W 22:17:59 57° N 22:23:36 10° ENE
Cosmos 1356 Rocket 3.3 22:17:59 25° SSW 22:20:20 84° ESE 22:24:25 10° NNE
ATLAS 3B R/B 3.0 22:12:40 10° W 22:20:32 71° SSW 22:28:12 10° ESE
Cosmos 1300 Rocket 4.2 22:17:12 14° SW 22:20:44 52° WNW 22:24:58 10° NNE
USA 229 DEB 3.8 22:15:33 10° W 22:22:18 64° SSW 22:29:57 10° ESE
SME Rocket 4.4 22:17:20 10° NNE 22:22:19 63° NW 22:29:48 10° SW
USA 229 3.8 22:15:36 10° W 22:22:21 65° SSW 22:30:01 10° ESE
Okean 2 Rocket 3.6 22:20:17 24° SSE 22:22:41 48° E 22:26:58 10° NNE
Cosmos 2285 Rocket 4.0 22:19:17 16° SSW 22:24:32 73° SE 22:30:53 10° NE
Cosmos 2322 Rocket 2.9 22:20:33 10° W 22:26:06 56° N 22:31:40 10° ENE
ATLAS 5 CENTAUR R/B 2.0 22:25:13 10° W 22:28:29 31° SSW 22:29:34 27° S
Cosmos 1626 Rocket 4.1 22:27:14 10° NNW 22:31:30 54° ENE 22:34:45 16° SE
ALOS 2 3.7 22:29:40 19° SSW 22:32:09 33° W 22:36:10 10° NNW
PSLV R/B 3.5 22:28:18 10° NNE 22:32:36 69° ESE 22:34:56 26° S
RESURS DK-1 2.2 22:30:06 19° SW 22:32:51 68° SE 22:36:48 10° ENE
Cosmos 1892 Rocket 3.6 22:28:40 10° NNW 22:33:09 80° WSW 22:35:45 25° S
SL-16 R/B 2.9 22:28:48 10° WNW 22:34:26 58° N 22:40:04 10° E
Cosmos 1741 Rocket 4.2 22:29:18 10° NW 22:34:36 77° NE 22:39:56 10° SE
Cosmos 332 Rocket 3.7 22:30:43 10° NW 22:35:36 74° SW 22:39:05 19° SSE
Cosmos 2237 Rocket 2.3 22:31:41 10° WSW 22:37:25 84° NNW 22:43:11 10° ENE
Cosmos 1459 Rocket 4.1 22:33:28 21° S 22:37:56 76° ESE 22:44:16 10° NNE
Cosmos 1125 Rocket 3.8 22:32:44 10° WSW 22:37:59 69° NW 22:43:16 10° NE
Cosmos 1605 Rocket 4.3 22:32:45 14° SW 22:38:04 62° WNW 22:44:12 10° NNE
Cosmos 1980 3.8 22:32:35 10° WSW 22:38:16 81° NNW 22:43:58 10° ENE
Cosmos 1190 Rocket 4.3 22:33:15 10° NW 22:38:25 53° WSW 22:41:38 22° S
Tsikada Rocket 4.0 22:34:09 10° NNW 22:40:34 81° WSW 22:45:05 20° S
Cosmos 2322 4.2 22:36:11 10° W 22:41:54 65° NNW 22:47:38 10° ENE
Sich 1 Rocket 3.9 22:39:45 24° SSE 22:42:13 55° E 22:46:33 10° NNE
COSMOS 2455 3.6 22:36:56 10° WNW 22:42:15 34° SW 22:45:15 21° S
TSX-5 3.7 22:38:07 10° SW 22:42:33 76° SSE 22:46:16 10° ENE
ARIANE 5 R/B 4.1 22:40:11 16° SW 22:42:40 25° W 22:46:17 10° NNW
Cosmos 2228 4.3 22:41:36 17° SE 22:44:06 30° E 22:47:47 10° NNE
Cosmos 2016 Rocket 4.2 22:42:33 20° S 22:47:00 64° E 22:53:17 10° NNE
USA 281 3.2 22:41:15 12° SE 22:47:29 76° SW 22:54:07 10° NW
Okean 1 Rocket 3.2 22:45:08 25° S 22:47:31 63° E 22:51:49 10° NNE
CZ-2C R/B 3.2 22:47:48 10° NNE 22:52:39 61° ESE 22:55:50 22° S
Cosmos 1743 2.2 22:49:54 10° NNW 22:52:57 63° WSW 22:54:00 35° S
Cosmos 2219 Rocket 2.9 22:48:52 10° W 22:54:24 56° N 22:59:57 10° ENE
Cosmos 44 4.2 22:51:59 23° S 22:54:33 36° SE 22:59:27 10° ENE
ARGOS Delta rocket 3.6 22:51:47 10° NNE 22:56:12 81° ESE 22:58:50 24° SSW
Cosmos 2150 Rocket 4.0 22:54:10 15° SW 22:58:27 88° NW 23:03:43 10° NE
USA 234 3.9 22:53:06 10° SE 22:58:52 32° SSW 23:04:39 10° W
Cosmos 2369 Rocket 4.2 22:57:15 10° WNW 22:59:55 14° W 23:02:35 10° SW
Cosmos 2173 Rocket 3.9 22:55:45 20° SSW 23:00:07 86° WNW 23:06:17 10° NNE
Cosmos 371 Rocket 4.4 22:56:18 10° NW 23:00:26 29° WSW 23:02:35 21° SSW
Cosmos 2251 Rocket 4.1 22:55:36 10° NW 23:00:33 41° WSW 23:03:27 22° S
Meteor 2-1 Rocket 4.4 22:57:54 21° S 23:01:56 74° ESE 23:07:45 10° NNE
SL-16 R/B 4.4 22:56:57 10° E 23:02:26 33° NNE 23:07:56 10° NNW
Cosmos 1805 4.3 22:59:54 10° N 23:02:57 33° ENE 23:05:58 10° SE
Helios 1A 4.5 23:01:02 10° NNE 23:04:36 31° NW 23:08:09 10° WSW
Cosmos 2100 Rocket 4.0 23:00:25 20° SSW 23:04:55 82° WNW 23:11:09 10° NNE
Cosmos 1656 4.2 23:00:51 10° NW 23:05:54 39° WSW 23:08:53 22° S
Cosmos 1455 Rocket 3.4 23:07:03 23° S 23:09:40 58° E 23:14:02 10° NNE
Cosmos 676 Rocket 4.3 23:05:02 10° NW 23:10:09 49° WSW 23:13:29 21° S
Cosmos 1758 Rocket 3.5 23:07:30 10° NNW 23:11:50 88° ENE 23:14:46 20° SSE
COSMOS 2428 3.3 23:06:13 10° W 23:11:56 61° NNW 23:17:38 10° ENE
Cosmos 1782 3.3 23:13:49 23° SSE 23:15:38 42° E 23:18:59 10° NNE
SL-19 R/B 4.2 23:15:36 29° WSW 23:15:52 30° WSW 23:18:12 10° NW
NOSS 0 Rocket 4.2 23:10:45 10° WSW 23:17:01 72° NNW 23:23:16 10° ENE
Cosmos 2084 Rocket 3.7 23:15:20 20° SW 23:17:45 42° SSE 23:21:43 10° E
Cosmos 1697 Rocket 2.7 23:13:59 10° NW 23:19:33 60° SW 23:24:52 11° SSE
ARIANE 6 FM1 Upper Stage 3.1 23:18:28 10° W 23:22:08 34° SSW 23:25:45 10° SE
Cosmos 2369 3.8 23:16:58 10° WNW 23:22:42 82° NNE 23:28:25 10° ESE
Cosmos 968 Rocket 3.6 23:17:42 10° NW 23:22:46 56° WSW 23:26:36 17° SSE
Cosmos 2333 Rocket 2.7 23:18:37 10° WNW 23:24:17 66° NNE 23:29:57 10° E
Cosmos 1943 3.4 23:21:35 20° SSW 23:25:27 59° SE 23:31:02 10° NE
DELTA 2 DEB (DPAF) 3.8 23:22:14 10° NNE 23:25:50 59° ESE 23:27:44 25° S
Cosmos 1850 Rocket 4.0 23:21:42 10° NW 23:26:55 67° SW 23:31:36 13° SSE
Meteor 1-25 Rocket 4.3 23:23:55 10° NNW 23:29:50 87° ENE 23:35:22 12° SSE
MOZ.5/SAFIR/RUBIN 5/SL-8 4.4 23:25:35 10° SE 23:30:11 56° ENE 23:34:46 10° NNW
SJ 16-02 2.8 23:28:29 10° NW 23:31:46 21° WSW 23:33:16 18° SW
Cosmos 1980 Rocket 2.2 23:29:32 10° NW 23:35:15 74° SW 23:40:57 10° SE
ACS3 Solar Sail 2.4 23:29:37 10° NNE 23:35:22 48° E 23:40:25 14° SSE
DNEPR-1 R/B 3.7 23:31:53 10° WSW 23:36:16 68° S 23:41:21 10° E
Aureole 3 Rocket 3.5 23:34:50 21° S 23:37:38 64° E 23:43:17 10° NNE
Okean 1-7 Rocket 3.7 23:35:46 10° NNW 23:40:10 73° ENE 23:44:15 12° SSE
Cosmos 2151 2.9 23:38:05 10° NNW 23:42:16 72° WSW 23:45:06 20° S
Cosmos 1825 Rocket 3.8 23:38:01 10° NNW 23:42:21 67° ENE 23:46:39 10° SSE
Geosat FO 3.7 23:39:57 10° NE 23:42:39 77° SE 23:43:47 31° SW
Cosmos 1602 Rocket 3.5 23:39:40 10° NNW 23:44:03 82° WSW 23:47:22 17° SSE
SL-16 R/B 2.3 23:39:53 11° WSW 23:45:29 84° NNW 23:51:13 10° ENE
CZ-2C R/B 3.8 23:44:18 17° SW 23:47:42 31° W 23:52:34 10° NNW
Cosmos 1802 Rocket 4.2 23:43:35 18° SSW 23:48:31 68° WNW 23:54:50 10° NNE
Cosmos 2298 Rocket 4.5 23:44:18 10° WSW 23:49:36 63° NW 23:54:55 10° NE
Cosmos 2151 Rocket 4.3 23:46:57 17° SW 23:50:11 46° WNW 23:54:27 10° NNE
Cosmos 292 Rocket 4.2 23:47:11 10° NW 23:51:45 44° WSW 23:55:01 18° S
Cosmos 1725 Rocket 4.2 23:48:08 17° SSW 23:53:04 69° WNW 23:59:25 10° NNE
Landsat 5 3.5 23:51:21 10° NNE 23:55:30 74° WNW 23:58:19 20° SSW
